Home > Weather > Boston > Past weeks

Flag for U.S.A. Weather for the Past 2 Weeks in Boston, Massachusetts, U.S.A.

Now
21 °F

Passing clouds.


Feels Like: 12 °F
Forecast: 0 / 20 °F
Wind: 7 mph from West

Location: Logan International Airport

Current Time: Feb 13, 2016 at 5:49:56 AM

Latest Report: Feb 13, 2016 at 4:54 AM


Visibility: 10 mi

Pressure: 29.80 "Hg

Humidity: 57%

Dew point: 8 °F

Location of BostonLocation

Historic Weather in Boston — Graph

°F

Boston Temperature Yesterday

Maximum temperature yesterday: 23 °F (at 1:54 PM)
Minimum temperature yesterday: 8 °F (at 2:54 AM)
Average temperature yesterday: 16 °F

High & Low Weather Summary for the Past Weeks

 TemperatureHumidityPressure
High64 °F (Feb 1, 12:54 PM)100% (Feb 5, 12:54 PM)30.40 "Hg (Feb 5, 12:54 PM)
Low8 °F (Feb 12, 2:54 AM)31% (Feb 1, 3:54 PM)29.37 "Hg (Jan 29, 12:54 PM)
Average35 °F67%29.92 "Hg
* Reported Jan 29 4:54 AM — Feb 13 4:54 AM, Boston, Weather by CustomWeather, © 2016

Note: Actual official high and low records may vary slightly from our data, if they occured in-between our weather recording intervals... More about our weather records

Advertising

Boston Weather History for the Previous 24 Hours

 ConditionsComfort  
Time TempWeatherWind HumidityBarometerVisibility
4:54 AM
Sat, Feb 13
21 °FPassing clouds.7 mph57%29.80 "Hg10 mi
3:54 AM21 °FMostly cloudy.8 mph60%29.80 "Hg10 mi
2:54 AM21 °FPassing clouds.9 mph57%29.82 "Hg10 mi
1:54 AM21 °FPassing clouds.6 mph60%29.85 "Hg10 mi
12:54 AM21 °FOvercast.6 mph62%29.88 "Hg10 mi
11:54 PM
Fri, Feb 12
21 °FMostly cloudy.9 mph60%29.91 "Hg10 mi
10:54 PM22 °FMostly cloudy.12 mph55%29.93 "Hg10 mi
9:54 PM22 °FOvercast.9 mph50%29.93 "Hg10 mi
8:54 PM22 °FOvercast.12 mph48%29.96 "Hg10 mi
7:54 PM22 °FOvercast.12 mph48%29.99 "Hg10 mi
6:54 PM22 °FOvercast.10 mph50%30.02 "Hg10 mi
5:54 PM22 °FOvercast.13 mph46%30.03 "Hg10 mi
4:54 PM22 °FMostly cloudy.10 mph46%30.04 "Hg10 mi
3:54 PM23 °FOvercast.9 mph40%30.05 "Hg10 mi
2:54 PM23 °FOvercast.8 mph38%30.06 "Hg10 mi
1:54 PM23 °FOvercast.5 mph40%30.07 "Hg10 mi
12:54 PM21 °FPartly sunny.8 mph41%30.11 "Hg10 mi
11:54 AM19 °FPartly sunny.8 mph41%30.13 "Hg10 mi
10:54 AM17 °FScattered clouds.13 mph45%30.17 "Hg10 mi
9:54 AM14 °FScattered clouds.10 mph42%30.18 "Hg10 mi
8:54 AM12 °FPassing clouds.14 mph46%30.20 "Hg10 mi
7:54 AM10 °FPassing clouds.10 mph50%30.20 "Hg10 mi
6:54 AM8 °FPassing clouds.14 mph52%30.19 "Hg10 mi
5:54 AM8 °FClear.14 mph49%30.16 "Hg10 mi
Weather by CustomWeather, © 2016

See weather overviewHow to use our weather pages